Location: Ferma
(41.9500°N, 44.5167°E)
Time: 13:20:35
(UTC+00:00)

Daily predictions for brighter satellites

Satellite Brightness Start Highest point End
(mag) Time Altitude Azimuth Time Altitude Azimuth Time Altitude Azimuth
SL-16 R/B 2.6 14:28:02 10° S 14:33:19 42° ESE 14:38:38 10° NE
Cosmos 2123 Rocket 4.4 14:27:29 10° N 14:33:24 40° ENE 14:39:14 10° SE
CORIOLIS 4.1 14:29:13 10° SSE 14:34:34 83° ENE 14:39:56 10° NNW
Radarsat Rocket 4.3 14:28:14 10° SSE 14:34:37 84° ENE 14:41:55 10° NNW
SL-8 R/B 4.2 14:30:04 10° W 14:34:45 53° NNW 14:39:27 10° ENE
Delta 2 Rocket 4.5 14:34:02 10° SW 14:37:10 26° S 14:40:06 10° ESE
NOSS 2-3 (D) 3.9 14:33:52 10° S 14:37:37 42° ESE 14:41:46 10° NE
Cosmos 1269 Rocket 4.0 14:32:44 10° NNW 14:38:00 63° ENE 14:43:13 10° SSE
MOS 1-B 4.4 14:32:22 10° SSE 14:38:04 64° ENE 14:43:47 10° N
Meteor 1-16 Rocket 4.4 14:35:34 10° S 14:41:28 90° ESE 14:47:16 10° N
NOSS 3-1 (C) 3.2 14:36:33 10° SSW 14:41:34 58° ESE 14:47:23 10° NE
COSMO-SKYMED 1 3.1 14:39:30 10° NNE 14:43:35 39° E 14:47:38 10° SSE
Okean 1-7 Rocket 4.0 14:40:14 10° N 14:44:25 40° ENE 14:48:36 10° SSE
X-37B 0.6 14:42:15 10° WNW 14:45:06 54° NNE 14:47:44 12° E
Cosmos 2322 Rocket 2.6 14:40:29 10° S 14:45:38 40° ESE 14:50:50 10° NE
CZ-2C R/B 4.4 14:40:13 10° S 14:45:53 52° W 14:51:28 10° NNW
Cosmos 1300 3.0 14:43:47 10° SSE 14:47:22 42° E 14:50:59 10° NNE
SMAP 3.8 14:43:59 10° S 14:48:34 60° W 14:53:11 10° NNW
Cosmos 1892 Rocket 3.6 14:45:22 10° N 14:49:50 85° W 14:54:14 10° S
NOSS 2-3 (C) 3.5 14:46:13 10° SSW 14:50:08 61° ESE 14:54:33 10° NE
Cosmos 371 Rocket 3.3 14:48:29 10° S 14:53:19 73° ESE 14:58:12 10° NNE
CZ-4 R/B 2.8 14:51:03 10° ESE 14:53:55 19° ENE 14:56:50 10° NNE
Cosmos 2360 Rocket 3.0 14:50:46 10° SSE 14:55:29 28° ESE 15:00:15 10° NE
Cosmos 2251 Rocket 4.5 14:53:03 10° N 14:57:28 26° ENE 15:01:50 10° ESE
NOSS 8 (H) 4.2 14:55:58 10° SSW 14:59:30 69° SE 15:02:24 11° NE
SL-08 RB Rocket 4.5 14:57:43 10° SE 15:01:41 30° ENE 15:05:41 10° N
Cosmos 2333 Rocket 3.6 14:59:06 10° SE 15:02:15 15° E 15:03:21 15° E
ARGOS 3.3 14:58:45 10° SE 15:03:55 49° ENE 15:09:08 10° N
FALCON 9 DEB 4.4 15:02:15 10° S 15:04:24 19° SE 15:05:06 17° ESE
SKYMED 3 4.5 15:03:17 10° NNE 15:07:38 73° ESE 15:11:58 10° S
Cosmos 2228 4.3 15:06:03 10° SE 15:09:12 20° E 15:12:22 10° NE
CZ-4B R/B 3.3 15:03:37 10° SSE 15:09:17 85° ENE 15:14:59 10° NNW
H-2A R/B 3.1 15:06:47 10° SE 15:10:40 35° ENE 15:14:28 10° N
Cosmos 839 Rocket 4.3 15:04:00 10° NNW 15:11:26 56° NE 15:17:38 10° SE
Cosmos 1626 Rocket 3.6 15:08:30 10° N 15:12:45 54° E 15:16:58 10° SSE
Cosmos 405 Rocket 4.0 15:11:29 10° NNW 15:15:20 45° W 15:19:11 10° SSW
Cosmos 2263 Rocket 3.0 15:10:59 10° NNW 15:16:23 53° WSW 15:21:46 10° S
Meteor 1-11 4.1 15:11:27 10° N 15:17:05 75° E 15:22:45 10° SSE
CZ-4 R/B 4.3 15:13:54 10° SSE 15:18:00 69° ENE 15:22:07 10° N
Cosmos 1605 Rocket 4.0 15:12:17 10° S 15:18:25 60° E 15:24:40 10° NNE
Tiangong 1.0 15:15:37 10° W 15:18:49 83° S 15:20:13 31° E
Cosmos 1980 Rocket 4.3 15:15:05 10° WSW 15:19:42 25° NW 15:24:22 10° N
Cosmos 44 3.6 15:15:40 10° SSW 15:20:56 56° ESE 15:25:41 13° NE
SWARM A 4.4 15:18:08 10° SSE 15:21:18 44° E 15:24:28 10° NNE
Cosmos 220 Rocket 4.1 15:18:09 10° S 15:22:29 56° ESE 15:26:48 10° NNE
Meteor 1-4 Rocket 2.3 15:21:54 10° S 15:25:21 69° E 15:28:47 10° NNE
CZ-2C R/B 2.7 15:20:36 10° NNE 15:26:14 88° ESE 15:31:42 10° SSW
Iridium 4 Rocket 3.5 15:21:57 10° N 15:26:42 80° W 15:31:52 10° S
Cosmos 614 Rocket 4.1 15:22:19 10° N 15:27:15 48° ENE 15:31:36 13° SE
CZ-4C R/B 2.9 15:27:13 10° N 15:30:34 80° WNW 15:33:47 10° SSW
SKYMED 2 4.1 15:27:22 10° N 15:31:41 61° WNW 15:35:56 10° SSW
EXPRESS MD2 3.6 15:30:48 10° SSW 15:31:58 23° S 15:31:58 23° S
YAOGAN 1 2.6 15:29:48 10° SSE 15:33:59 53° ENE 15:38:12 10° N
CZ-2C R/B 3.4 15:34:24 10° WSW 15:36:36 15° SSW 15:38:32 11° SSE
H-2A R/B 2.3 15:36:45 27° NE 15:38:30 41° E 15:42:29 10° S
MOS 1-B Rocket 4.1 15:33:20 10° NNE 15:39:48 78° WNW 15:45:31 10° SSW
USA 215 4.4 15:34:00 10° NE 15:39:48 35° NNW 15:45:35 10° W
Cosmos 1892 2.6 15:38:44 10° N 15:42:26 55° E 15:43:11 45° SE
USA 229 DEB 3.5 15:38:50 10° SSW 15:45:11 90° ESE 15:51:43 11° NE
USA 229 3.5 15:38:57 10° SSW 15:45:17 89° SE 15:51:46 11° NE
Cosmos 304 Rocket 4.3 15:41:20 10° SSW 15:46:03 61° WNW 15:50:50 10° NNE
BREEZE-M DEB (TANK) 3.4 15:41:47 10° WNW 15:46:44 40° NNE 15:47:00 39° NNE
Cosmos 2237 4.3 15:43:21 10° SSW 15:49:04 80° WNW 15:54:50 10° NNE
Cosmos 1844 Rocket 2.6 15:43:33 10° NNW 15:49:05 60° ENE 15:51:42 30° SE
Milstar 3 Cent rocket 4.4 15:44:20 10° SSW 15:49:34 23° SSE 15:52:19 20° SE
Meteor 2-10 Rocket 3.7 15:47:49 10° SSW 15:53:24 78° W 15:58:48 10° N
Lacrosse 4 Rocket 1.9 15:55:17 10° NW 15:59:35 63° WSW 16:02:09 24° S
H-2A R/B 3.9 15:54:51 10° SSW 15:59:40 33° W 16:04:34 10° NNW
Cosmos 1408 3.0 15:57:30 10° N 16:00:13 49° N 16:00:13 49° N
Okean O Rocket 3.4 15:57:33 10° SSW 16:01:27 32° W 16:05:23 10° NNW
Cosmos 1932 4.3 15:58:31 10° NNW 16:04:45 69° NE 16:06:48 43° ESE
COSMOS 2428 4.4 16:01:25 10° SSE 16:02:49 17° SSE 16:02:49 17° SSE
NOSS 3-1 (A) 3.6 16:02:36 10° SW 16:07:47 60° NW 16:12:29 17° NNE
DMSP B5D2-2 4.0 16:05:04 10° NNE 16:10:20 86° WNW 16:15:33 10° SSW
OAO 3 Rocket 4.4 16:06:45 10° SW 16:10:34 29° S 16:10:34 29° S
Cosmos 2278 Rocket 4.1 16:09:06 10° N 16:10:51 15° NNE 16:10:51 15° NNE
USA 267 4.2 16:07:14 10° SSE 16:13:21 43° SW 16:19:31 10° WNW
Cosmos 2333 4.0 16:08:07 10° SSW 16:13:43 72° ESE 16:15:12 49° NE
Meteor 2-11 Rocket 4.3 16:07:47 10° S 16:13:56 80° E 16:20:06 10° N
SL-16 R/B 4.0 16:12:37 10° WSW 16:17:32 30° NW 16:22:30 10° N
X-37B 3.2 16:18:01 10° W 16:19:08 19° W 16:19:08 19° W
CZ-3 Stage 3 4.3 16:09:05 10° W 16:21:04 29° SSW 16:23:12 22° S
CENTAUR R/B 4.5 16:18:36 10° NNW 16:24:17 21° NNE 16:25:24 21° NE
Okean-O 2.9 16:25:12 61° NNW 16:25:12 61° NNW 16:28:55 10° NNW
CZ-4 R/B 2.9 16:25:03 11° SSW 16:28:38 35° W 16:32:25 10° NNW
Cosmos 2322 Rocket 3.9 16:24:49 10° WSW 16:29:45 31° NW 16:34:43 10° N
Cosmos 2219 Rocket 2.9 16:30:25 10° SSW 16:33:54 40° S 16:33:54 40° S
Orbus 7S? 4.2 16:30:28 10° NW 16:36:24 59° NW 16:36:24 59° NW
Cosmos 1459 Rocket 3.8 16:32:02 10° S 16:38:15 89° E 16:44:25 10° N
Cosmos 2360 Rocket 3.3 16:33:56 10° SW 16:39:15 42° WNW 16:44:15 12° N
Cosmos 407 Rocket 3.8 16:35:28 10° NNW 16:39:51 61° NNW 16:39:51 61° NNW
Cosmos 2100 Rocket 4.0 16:34:33 10° S 16:40:52 81° W 16:47:16 10° N
Cosmos 1844 4.0 16:35:22 10° NNW 16:41:05 64° WSW 16:41:58 56° SSW
Cosmos 1140 Rocket 4.0 16:36:38 10° NNW 16:40:30 51° NNW 16:40:30 51° NNW
Cosmos 2333 Rocket 2.3 16:40:08 10° SSW 16:45:27 72° W 16:45:27 72° W
Cosmos 2173 Rocket 4.2 16:47:05 10° SSW 16:53:14 69° W 16:59:31 10° N
CENTAUR R/B 4.5 18:08:50 10° NNW 18:12:35 30° NNW 18:12:35 30° NNW
Cosmos 2322 Rocket 4.5 23:40:23 19° ENE 23:40:23 19° ENE 23:42:58 10° ESE
